Preview of NWS' New Version of Forecast
This preview is not operational and should not be used for support decisions.

Regional Weather Roundup (RWR)

Issued by National Weather Service (NWS)

                            
000
ASPQ40 PGUM 260510
RWRPQ 
WEATHER ROUNDUP FOR THE MARIANAS AND MICRONESIA
NATIONAL WEATHER SERVICE TIYAN GU
300 PM CHST WED JUN 26 2019

GUZ001>004-260600-
MARIANA ISLANDS-
  
CITY           SKY/WX    TMP DP  RH WIND       PRES   REMARKS
GUAM AIRPORT   MOSUNNY   88  73  62 E15       29.84F HX  96           
ANDERSEN AFB   PTSUNNY   86  73  66 E17       29.85F HX  93           
ROTA AIRPORT   PTSUNNY   86  73  66 E18       29.83F HX  93           
TINIAN AP      PTSUNNY   90  75  62 E17       29.82F HX 100           
SAIPAN AP      MOSUNNY   88  77  70 E13       29.83F HX 100           

$$

PMZ161-260600-
REPUBLIC OF PALAU-
  
CITY           SKY/WX    TMP DP  RH WIND       PRES   REMARKS
KOROR AP       CLOUDY    79  77  94 W3        29.77F                  
KOROR WSO      NOT AVBL                                               

$$

PMZ171>174-260600-
FEDERATED STATES OF MICRONESIA-
  
CITY           SKY/WX    TMP DP  RH WIND       PRES   REMARKS
YAP AIRPORT    CLOUDY    88  79  74 E7        29.74F HX 102           
CHUUK AP       CLOUDY    86  81  84 VRB3      29.77F HX 102           
POHNPEI AP     CLOUDY    86  77  74 N6        29.76F HX  97           
POHNPEI WSO    CLOUDY    86  77  74 W5        29.78F HX  97           
KOSRAE AP      NOT AVBL                                               

$$

PMZ181-260600-
REPUBLIC OF THE MARSHALL ISLANDS-
  
CITY           SKY/WX    TMP DP  RH WIND       PRES   REMARKS
KWAJALEIN AP   SUNNY     86  77  74 E13       29.83R HX  97           
MAJURO AP      PTSUNNY   86  77  74 NE16      29.83R HX  97           
MAJURO WSO     PTSUNNY   86  77  74 E9        29.81R HX  97           

$$